This demonstration page uses our WeatherBlox Daily Observations layout. Learn more.

Left ArrowRight Arrow

39.51506, -84.39828

Hourly Observations for October 7, 2022

Temp ( °F °C ) Dew Point ( °F °C ) Humidity (%) Winds ( mph kmh ) Pressure ( in mb ) Visibility ( mi km ) Precip ( " mm )
12:15 am 00:15 Clear 49 9.4 N/A N/A Calm 30.07 1018 10 16 0.00 0.00
12:35 am 00:35 Clear 49 9.7 N/A N/A Calm 30.07 1018 10 16 0.00 0.00
12:55 am 00:55 Clear 50 9.9 N/A N/A Calm 30.07 1018 10 16 0.00 0.00
1:15 am 01:15 Mostly Clear with Mist and Fog 48 9 N/A N/A Calm 30.08 1019 1 2 0.00 0.00
1:35 am 01:35 Mostly Clear with Fog 49 9.2 N/A N/A Calm 30.07 1018 1 1 0.00 0.00
1:55 am 01:55 Mostly Clear with Fog 48 8.9 N/A N/A Calm 30.07 1018 0 0 0.00 0.00
2:15 am 02:15 Mostly Clear with Mist and Fog 49 9.3 N/A N/A Calm 30.07 1018 3 4 0.00 0.00
2:35 am 02:35 Clear 47 8.5 N/A N/A NE 3 6 30.08 1019 10 16 0.00 0.00
2:55 am 02:55 Clear 46 7.9 N/A N/A Calm 30.09 1019 10 16 0.00 0.00
3:15 am 03:15 Clear 48 8.8 N/A N/A NW 6 9 30.10 1019 10 16 0.00 0.00
3:35 am 03:35 Clear 51 10.8 50 9.9 94 94 NNW 8 13 30.10 1019 10 16 0.00 0.00
3:55 am 03:55 Clear 54 12.4 50 10.1 86 86 NNW 10 17 30.10 1019 10 16 0.00 0.00
4:15 am 04:15 Clear 55 12.6 50 10.2 85 85 NNW 12 19 30.10 1019 10 16 0.00 0.00
4:35 am 04:35 Clear 54 12.3 48 8.7 79 79 N 10 17 30.11 1020 10 16 0.00 0.00
4:55 am 04:55 Clear 54 12.1 46 7.5 73 73 N 9 15 30.12 1020 10 16 0.00 0.00
5:15 am 05:15 Partly Cloudy 53 11.8 45 7 72 72 N 12 19 30.13 1020 10 16 0.00 0.00
5:35 am 05:35 Partly Cloudy 53 11.5 44 6.9 73 73 N 9 15 30.14 1020 10 16 0.00 0.00
5:55 am 05:55 Clear 52 11.1 44 6.9 75 75 N 9 15 30.15 1021 10 16 0.00 0.00
6:15 am 06:15 Partly Cloudy 51 10.7 44 6.9 77 77 N 6 9 30.16 1021 10 16 0.00 0.00
6:35 am 06:35 Mostly Cloudy 51 10.6 44 6.9 78 78 N 6 9 30.16 1021 10 16 0.00 0.00
6:55 am 06:55 Cloudy 51 10.8 45 7.2 78 78 NNW 6 9 30.17 1022 10 16 0.00 0.00
7:15 am 07:15 Cloudy 52 11.1 46 7.7 80 80 N 9 15 30.17 1022 10 16 0.00 0.00
7:35 am 07:35 Cloudy 53 11.4 46 8 80 80 N 8 13 30.18 1022 10 16 0.00 0.00
7:55 am 07:55 Cloudy 53 11.5 47 8.3 81 81 N 12 19 30.18 1022 10 16 0.00 0.00
8:15 am 08:15 Cloudy 53 11.6 47 8.6 82 82 NNW 7 11 30.19 1022 10 16 0.00 0.00
8:35 am 08:35 Cloudy 53 11.7 47 8.5 81 81 NNW 9 15 30.21 1023 10 16 0.00 0.00
8:55 am 08:55 Cloudy 54 12 47 8.6 80 80 NNW 12 19 30.20 1023 10 16 0.00 0.00
9:15 am 09:15 Cloudy 54 12.3 47 8.3 77 77 NNW 9 15 30.21 1023 10 16 0.00 0.00
9:35 am 09:35 Cloudy 54 12.1 45 7.4 73 73 N 13 20 30.23 1024 10 16 0.00 0.00
9:55 am 09:55 Cloudy 54 12.2 45 7.1 71 71 N 13 20 30.23 1024 10 16 0.00 0.00
10:15 am 10:15 Cloudy 55 12.8 44 6.4 65 65 NNW 12 19 30.23 1024 10 16 0.00 0.00
10:35 am 10:35 Cloudy 55 12.5 43 6.1 65 65 N 10 17 30.24 1024 10 16 0.00 0.00
10:55 am 10:55 Cloudy 56 13.1 44 6.7 65 65 NW 8 13 30.24 1024 10 16 0.00 0.00
11:15 am 11:15 Mostly Cloudy 56 13.5 42 5.8 60 60 N 13 20 30.24 1024 10 16 0.00 0.00
11:35 am 11:35 Mostly Cloudy 56 13.4 42 5.4 58 58 NW 13 20 30.25 1024 10 16 0.00 0.00
11:55 am 11:55 Mostly Cloudy 57 13.8 40 4.6 54 54 N 6 9 30.25 1024 10 16 0.00 0.00
12:15 pm 12:15 Mostly Cloudy 58 14.6 41 5 52 52 N 15 24 30.26 1025 10 16 0.00 0.00
12:35 pm 12:35 Mostly Cloudy 57 13.7 39 3.9 52 52 NW 12 19 30.26 1025 10 16 0.00 0.00
12:55 pm 12:55 Partly Cloudy 58 14.2 39 4 50 50 N 13 20 30.26 1025 10 16 0.00 0.00
1:15 pm 13:15 Partly Cloudy 58 14.4 38 3.5 48 48 N 14 22 30.27 1025 10 16 0.00 0.00
1:35 pm 13:35 Partly Cloudy 57 14 37 2.9 47 47 NNW 9 15 30.27 1025 10 16 0.00 0.00
1:55 pm 13:55 Partly Cloudy 57 14 37 2.6 46 46 N 13 20 30.27 1025 10 16 0.00 0.00
2:15 pm 14:15 Partly Cloudy 57 14 36 2.3 45 45 N 16 26 30.26 1025 10 16 0.00 0.00
2:35 pm 14:35 Partly Cloudy 57 13.7 36 2.1 45 45 NW 12 19 30.26 1025 10 16 0.00 0.00
2:55 pm 14:55 Sunny 57 13.9 35 1.5 43 43 NNW 12 19 30.26 1025 10 16 0.00 0.00
3:15 pm 15:15 Partly Cloudy 58 14.2 35 1.9 43 43 NW 14 22 30.26 1025 10 16 0.00 0.00
3:35 pm 15:35 Partly Cloudy 57 13.8 35 1.8 44 44 NW 13 20 30.26 1025 10 16 0.00 0.00
3:55 pm 15:55 Partly Cloudy 56 13.6 35 1.8 45 45 N 15 24 30.26 1025 10 16 0.00 0.00
4:15 pm 16:15 Sunny 56 13.5 35 1.4 44 44 NNW 10 17 30.26 1025 10 16 0.00 0.00
4:30 pm 16:30 Partly Cloudy 56 13.3 35 1.8 46 46 N 10 17 30.27 1025 10 16 0.00 0.00
4:55 pm 16:55 Partly Cloudy 56 13.4 35 1.7 45 45 N 10 17 30.27 1025 10 16 0.00 0.00
5:15 pm 17:15 Partly Cloudy 55 13 34 1.3 45 45 NNW 12 19 30.27 1025 10 16 0.00 0.00
5:35 pm 17:35 Sunny 55 12.5 33 0.8 45 45 NNW 12 19 30.28 1026 10 16 0.00 0.00
5:55 pm 17:55 Partly Cloudy 54 12.2 34 1 46 46 NNW 9 15 30.28 1026 10 16 0.00 0.00
6:15 pm 18:15 Mostly Cloudy 53 11.9 33 0.4 45 45 N 7 11 30.29 1026 10 16 0.00 0.00
6:35 pm 18:35 Partly Cloudy 53 11.4 33 0.6 47 47 N 9 15 30.30 1026 10 16 0.00 0.00
6:55 pm 18:55 Sunny 51 10.5 34 0.9 51 51 NNW 7 11 30.30 1026 10 16 0.00 0.00
7:15 pm 19:15 Clear 49 9.7 34 0.9 54 54 NNW 5 7 30.31 1026 10 16 0.00 0.00
7:35 pm 19:35 Clear 49 9.2 35 1.4 58 58 NNW 3 6 30.31 1026 10 16 0.00 0.00
7:55 pm 19:55 Clear 47 8.1 37 2.7 69 69 Calm 30.32 1027 10 16 0.00 0.00
8:15 pm 20:15 Clear 45 7.1 38 3.5 78 78 Calm 30.33 1027 10 16 0.00 0.00
8:35 pm 20:35 Clear 41 5.2 38 3.4 88 88 NNW 3 6 30.34 1027 10 16 0.00 0.00
8:55 pm 20:55 Clear 41 4.9 38 3.4 90 90 N 3 6 30.34 1027 10 16 0.00 0.00
9:15 pm 21:15 Clear 40 4.5 38 3.3 92 92 N 3 6 30.35 1028 10 16 0.00 0.00
9:35 pm 21:35 Clear 39 4 37 2.7 91 91 N 3 6 30.36 1028 10 16 0.00 0.00
9:55 pm 21:55 Clear 39 4.1 37 2.8 91 91 NNE 3 6 30.36 1028 10 16 0.00 0.00
10:15 pm 22:15 Clear 38 3.5 36 2.4 92 92 Calm 30.37 1028 10 16 0.00 0.00
10:35 pm 22:35 Clear 38 3.3 38 3.1 99 99 Calm 30.38 1029 10 16 0.00 0.00
10:55 pm 22:55 Clear 40 4.4 36 2 84 84 NNE 3 6 30.38 1029 10 16 0.00 0.00
11:15 pm 23:15 Clear 40 4.7 35 1.9 82 82 NNE 5 7 30.38 1029 10 16 0.00 0.00
11:35 pm 23:35 Clear 40 4.3 35 1.4 81 81 NNE 5 7 30.38 1029 10 16 0.00 0.00
11:55 pm 23:55 Clear 40 4.3 35 1.6 83 83 N 5 7 30.38 1029 10 16 0.00 0.00

Powered by AerisWeather